Regional Weather Roundup
Issued by NWS

Home | Current Version | Previous Version | Text Only | Print | Product List | Glossary On
Versions: 1 2 3 4 5 6 7 8 9 10 11 12 13 14 15 16 17 18 19 20 21 22 23 24 25 26 27 28 29 30 31 32 33 34 35 36 37 38 39 40 41 42 43 44 45 46 47 48 49 50
000
ASUS43 KMKX 061121
RWRWI

WISCONSIN REGIONAL WEATHER ROUNDUP
NATIONAL WEATHER SERVICE MILWAUKEE/SULLIVAN WI
600 AM CDT WED MAY 06 2015

NOTE: "FAIR" INDICATES FEW OR NO CLOUDS BELOW 12,000 FEET WITH NO
SIGNIFICANT WEATHER AND/OR OBSTRUCTIONS TO VISIBILITY.

WIZ001-002-006>008-014>016-023>028-061200-
NORTHWEST WISCONSIN

CITY           SKY/WX    TMP DP  RH WIND       PRES   REMARKS
SUPERIOR ARPT  DRIZZLE   40  39  95 NE6       30.12F
ASHLAND        CLOUDY    49  36  61 E3        30.15S
HAYWARD        CLOUDY    52  47  83 S10       30.14S
SIREN          CLOUDY    52  49  88 SE6       30.10F
CUMBERLAND     CLOUDY    50  46  87 SE8       30.12S FOG
RICE LAKE      CLOUDY    51  49  90 SE10      30.14R
CHETEK         CLOUDY    51  50  95 E8        30.13S
LADYSMITH      LGT RAIN  50  48  93 SE6       30.17S
EAU CLAIRE     CLOUDY    53  50  89 E10       30.11F
MENOMONIE      CLOUDY    54  52  92 E8        30.11F FOG
NEW RICHMOND   CLOUDY    53  52  98 SE5       30.09S FOG
OSCEOLA        LGT RAIN  53  53 100 SE9       30.11S
$$

WIZ003>005-009-010-017-018-061200-
NORTH CENTRAL WISCONSIN

CITY           SKY/WX    TMP DP  RH WIND       PRES   REMARKS
MANITOWISH WTR CLOUDY    51  30  44 SE7       30.18S
ARBOR VITAE    CLOUDY    52  32  46 S8        30.18F
WOODRUFF       CLOUDY    52  32  46 S8        30.18F
RHINELANDER    LGT RAIN  48  37  65 SE6       30.20S
EAGLE RIVER    CLOUDY    49  29  44 S3        30.20S
LAND O LAKES   CLOUDY    40  38  93 CALM      30.21S
PHILLIPS       DRIZZLE   46  44  90 SE7       30.16S
TOMAHAWK       CLOUDY    45  41  86 CALM      30.19F
MEDFORD        CLOUDY    46  44  90 E6        30.17S
MERRILL        RAIN      46  43  90 SE5       30.20S
$$

WIZ029-030-035-036-043>047-061200-
CENTRAL WISCONSIN

CITY           SKY/WX    TMP DP  RH WIND       PRES   REMARKS
WAUSAU         LGT RAIN  48  43  82 E6        30.19R
MOSINEE        NOT AVBL
MARSHFIELD     CLOUDY    51  46  83 SE9       30.17S
STEVENS POINT  CLOUDY    47  41  79 E5        30.19S
WAUPACA        CLOUDY    54  40  60 E5        30.20S
WAUTOMA        CLOUDY    50  47  89 CALM      30.20S
WISC RAPIDS    CLOUDY    51  44  77 E8        30.18F
CAMP DOUGLAS   CLOUDY    51  51 100 E8        30.15S
$$

WIZ011>013-019>022-031-037>040-048>050-061200-
NORTHEAST WISCONSIN

CITY           SKY/WX    TMP DP  RH WIND       PRES   REMARKS
ANTIGO         CLOUDY    49  36  59 SE5       30.20S
SHAWANO        LGT RAIN  50  43  76 SE3       30.21S
OCONTO         CLOUDY    49  43  79 N3        30.21F
STURGEON BAY   CLOUDY    48  34  57 CALM      30.25R
GREEN BAY      LGT RAIN  52  40  63 E3        30.21S
MANITOWOC      CLOUDY    46  39  76 SE3       30.22S
APPLETON       MOCLDY    52  37  58 E7        30.21R
CLINTONVILLE   LGT RAIN  50  46  87 CALM      30.21S
OSHKOSH        MOCLDY    50  44  80 SE3       30.19R
$$

WIZ032>034-041-042-053>061-061200-
SOUTHWEST WISCONSIN

CITY           SKY/WX    TMP DP  RH WIND       PRES   REMARKS
LA CROSSE      CLOUDY    56  53  90 E7        30.12S FOG
SPARTA         CLOUDY    52  51  95 E3        30.15S FOG
VIROQUA        CLOUDY    51  51 100 SE10      30.13S VSB 1/4
BOSCOBEL       FOG       54  52  93 NE5       30.14S VSB 1
PRAIRIE DU CHI CLOUDY    54  52  94 SE5       30.12S FOG
PLATTEVILLE    CLOUDY    51  51  98 E8        30.13S VSB 1/4
$$

WIZ056-057-062-063-064-067-068-061200-
SOUTH CENTRAL WISCONSIN

CITY           SKY/WX    TMP DP  RH WIND       PRES   REMARKS
REEDSBURG      CLOUDY    50  50  99 E5        30.15S FOG
BARABOO/DELLS  NOT AVBL
LONE ROCK      CLOUDY    52  51  97 E10       30.15S FOG
MINERAL POINT  FOG       52  50  93 E8        30.14R VSB<1/4
MADISON        CLOUDY    50  47  89 E6        30.16S FOG
MIDDLETON      CLOUDY    51  51  99 E5        30.17S VSB 1/2
WATERTOWN      CLOUDY    47  47 100 E6        30.16F FOG
MONROE         FOG       50  50 100 E7        30.15R VSB<1/4
JANESVILLE     FOG       50  48  93 E7        30.16R VSB 1
$$

WIZ051-052-058>065-066-070>072-061200-
SOUTHEAST WISCONSIN

CITY           SKY/WX    TMP DP  RH WIND       PRES   REMARKS
MILWAUKEE      FOG       46  43  89 CALM      30.20S VSB 1
WAUKESHA       FOG       46  45  93 E5        30.19F VSB 1/2
MILWAUKEE/TIMM FOG       45  43  93 CALM      30.20S VSB 1/4
RACINE         FOG       47  45  93 E6        30.20F VSB 1/4
BURLINGTON     FOG       46  46  99 E3        30.18S VSB<1/4
KENOSHA        FOG       47  46  97 E6        30.18S VSB 1/4
FOND DU LAC    MOCLDY    49  44  83 S6        30.19S
SHEBOYGAN      CLOUDY    46  42  86 CALM      30.21S
WEST BEND      CLOUDY    45  43  93 E3        30.20S FOG
JUNEAU         CLOUDY    47  46  95 E8        30.19S FOG
$$

LSZ147-162-061200-
LAKE SUPERIOR

STATION/POSITION TIME  TEMP    WIND        PRES    WAVE
                       AIR SEA DIR/SP/G            HT/PER
                 (UTC) (F)     (DEG/KT/KT) (MB)    (FT/S)
W MID LAKE BUOY  1050   41 35   70/  6/  8 1022.6F   1
DEVILS ISLAND    1100   46      90/ 10/ 11 1021.7F
PORT WING        1040   40      40/  5/  7 1020.7F
SAXON HARBOR     1000   45        CALM     1020.3F
$$

LMZ867-665-643>646-061200-
LAKE MICHIGAN

STATION/POSITION TIME  TEMP    WIND        PRES    WAVE
                       AIR SEA DIR/SP/G            HT/PER
                 (UTC) (F)     (DEG/KT/KT) (MB)    (FT/S)
CHAMBERS ISLAND  1000   44        CALM     1023.4S
NORTHPORT PIER   1000   44     150/  3/  5 1023.4S
SISTER BAY       1002   47        CALM       N/A
KEWAUNEE LAKESHO 1000   43      40/  2/  3 1022.6S
SHEBOYGAN LAKESH 1100   44      80/  2/  4 1023.7R
PORT WASHINGTON  1000   45      30/  5/  6 1023.4F
ATWATER BUOY     1100   43      10/  4/  4 1023.8R
MILWAUKEE LAKESH 1100   45      40/  4/  5   N/A
KENOSHA   LAKESH 1100   44      40/  1/  2 1022.0S
$$

TC  - TEMPERATURE IN CELSIUS
VSB - VISIBILITY IN STATUTE MILES
WCI - WIND CHILL INDEX
HX  - HEAT INDEX



USA.gov is the U.S. government's official web portal to all federal, state and local government web resources and services.